• In Portugal
  • List of Countries
  • For 7 days
  • Water Temperature
  • Satellite Maps
  • Weather Map
  • Weather Widgets
  • user-avatar
    Login

    Hourly Weather Kielpin

    Today, 19 October, Friday

    Time Temperature Precipitation Wind Pressure Humidity
    00:00 +10°C° 0 mm 2 mps 751 mmHg 94%
    01:00 +10°C° 0 mm 2 mps 752 mmHg 96%
    02:00 +10°C° 0 mm 2 mps 752 mmHg 95%
    03:00 +10°C° 0 mm 2 mps 752 mmHg 95%
    04:00 +9°C° 0 mm 2 mps 752 mmHg 95%
    05:00 +9°C° 0 mm 2 mps 752 mmHg 93%
    06:00 +9°C° 0 mm 2 mps 752 mmHg 91%
    07:00 +9°C° 0 mm 2 mps 752 mmHg 89%
    08:00 +10°C° 0 mm 2 mps 753 mmHg 79%
    09:00 +13°C° 0 mm 2 mps 753 mmHg 68%
    10:00 +14°C° 0 mm 2 mps 753 mmHg 58%
    11:00 +15°C° 0 mm 2 mps 753 mmHg 53%
    12:00 +15°C° 0 mm 2 mps 753 mmHg 49%
    13:00 +16°C° 0 mm 2 mps 754 mmHg 44%
    14:00 +15°C° 0 mm 2 mps 753 mmHg 46%
    15:00 +15°C° 0 mm 1 mps 753 mmHg 49%
    16:00 +14°C° 0 mm 1 mps 753 mmHg 51%
    17:00 +13°C° 0 mm 1 mps 753 mmHg 55%
    18:00 +12°C° 0 mm 1 mps 753 mmHg 58%
    19:00 +11°C° 0 mm 1 mps 753 mmHg 62%
    20:00 +10°C° 0 mm 1 mps 753 mmHg 64%
    21:00 +10°C° 0 mm 1 mps 754 mmHg 66%
    22:00 +9°C° 0 mm 1 mps 754 mmHg 68%
    23:00 +9°C° 0 mm 1 mps 754 mmHg 70%

    Tomorrow, 20 October, Saturday

    Time Temperature Precipitation Wind Pressure Humidity
    00:00 +8°C° 0 mm 1 mps 754 mmHg 71%
    01:00 +8°C° 0 mm 1 mps 754 mmHg 72%
    02:00 +8°C° 0 mm 1 mps 754 mmHg 73%
    03:00 +8°C° 0 mm 1 mps 754 mmHg 74%
    04:00 +8°C° 0 mm 1 mps 754 mmHg 75%
    05:00 +8°C° 0 mm 1 mps 754 mmHg 78%
    06:00 +7°C° 0 mm 2 mps 754 mmHg 82%
    07:00 +6°C° 0 mm 2 mps 754 mmHg 85%
    08:00 +8°C° 0 mm 2 mps 755 mmHg 80%
    09:00 +9°C° 0 mm 3 mps 755 mmHg 74%
    10:00 +11°C° 0 mm 3 mps 755 mmHg 68%
    11:00 +11°C° 0 mm 4 mps 755 mmHg 65%
    12:00 +11°C° 0 mm 4 mps 755 mmHg 62%
    13:00 +11°C° 0 mm 4 mps 755 mmHg 59%
    14:00 +11°C° 0 mm 4 mps 755 mmHg 61%
    15:00 +11°C° 0 mm 4 mps 755 mmHg 63%
    16:00 +10°C° 0 mm 4 mps 754 mmHg 65%
    17:00 +10°C° 0.1 mm 4 mps 755 mmHg 69%
    18:00 +8°C° 0.1 mm 4 mps 755 mmHg 73%
    19:00 +8°C° 0.1 mm 4 mps 755 mmHg 77%
    20:00 +9°C° 0 mm 3 mps 754 mmHg 81%
    21:00 +8°C° 0 mm 3 mps 754 mmHg 84%
    22:00 +8°C° 0 mm 3 mps 754 mmHg 87%
    23:00 +8°C° 0 mm 3 mps 754 mmHg 88%

    Day after tomorrow, 21 October, Sunday

    Time Temperature Precipitation Wind Pressure Humidity
    00:00 +7°C° 0 mm 3 mps 754 mmHg 90%
    01:00 +7°C° 0 mm 3 mps 754 mmHg 92%
    02:00 +7°C° 0 mm 3 mps 754 mmHg 92%
    03:00 +5°C° 0 mm 3 mps 754 mmHg 93%
    04:00 +6°C° 0 mm 2 mps 754 mmHg 93%
    05:00 +6°C° 0 mm 2 mps 754 mmHg 94%
    06:00 +6°C° 0 mm 2 mps 754 mmHg 94%
    07:00 +6°C° 0 mm 2 mps 754 mmHg 95%
    08:00 +7°C° 0 mm 2 mps 754 mmHg 87%
    09:00 +9°C° 0 mm 2 mps 755 mmHg 79%
    10:00 +11°C° 0 mm 3 mps 755 mmHg 71%
    11:00 +13°C° 0 mm 2 mps 755 mmHg 66%
    12:00 +13°C° 0 mm 2 mps 755 mmHg 61%
    13:00 +14°C° 0 mm 2 mps 755 mmHg 57%
    14:00 +14°C° 0 mm 2 mps 755 mmHg 59%
    15:00 +13°C° 0 mm 1 mps 754 mmHg 62%
    16:00 +12°C° 0 mm 1 mps 754 mmHg 64%
    17:00 +11°C° 0 mm 1 mps 754 mmHg 69%
    18:00 +10°C° 0 mm 1 mps 754 mmHg 74%
    19:00 +9°C° 0 mm 1 mps 754 mmHg 79%
    20:00 +9°C° 0 mm 1 mps 754 mmHg 82%
    21:00 +9°C° 0 mm 1 mps 754 mmHg 84%
    22:00 +8°C° 0 mm 1 mps 754 mmHg 86%
    23:00 +8°C° 0 mm 1 mps 754 mmHg 87%

    22 October, Monday

    Time Temperature Precipitation Wind Pressure Humidity
    00:00 +7°C° 0 mm 2 mps 754 mmHg 89%
    01:00 +7°C° 0 mm 2 mps 754 mmHg 90%
    02:00 +6°C° 0 mm 2 mps 753 mmHg 91%
    03:00 +6°C° 0 mm 2 mps 753 mmHg 92%
    04:00 +5°C° 0 mm 3 mps 752 mmHg 93%
    05:00 +5°C° 0 mm 3 mps 752 mmHg 93%
    06:00 +5°C° 0 mm 3 mps 752 mmHg 93%
    07:00 +5°C° 0 mm 3 mps 752 mmHg 93%
    08:00 +6°C° 0.1 mm 4 mps 752 mmHg 90%
    09:00 +7°C° 0.1 mm 4 mps 752 mmHg 87%
    10:00 +8°C° 0.1 mm 4 mps 752 mmHg 85%
    11:00 +8°C° 0.3 mm 4 mps 752 mmHg 85%
    12:00 +8°C° 0.3 mm 4 mps 752 mmHg 86%
    13:00 +8°C° 0.3 mm 4 mps 752 mmHg 86%
    14:00 +8°C° 0.4 mm 4 mps 752 mmHg 82%
    15:00 +9°C° 0.4 mm 3 mps 752 mmHg 79%
    16:00 +8°C° 0.4 mm 3 mps 752 mmHg 75%
    17:00 +8°C° 0.1 mm 3 mps 752 mmHg 76%
    18:00 +7°C° 0.1 mm 3 mps 752 mmHg 77%
    19:00 +7°C° 0.1 mm 3 mps 752 mmHg 78%
    20:00 +7°C° 0 mm 3 mps 752 mmHg 79%
    21:00 +5°C° 0 mm 3 mps 752 mmHg 79%
    22:00 +5°C° 0 mm 3 mps 752 mmHg 79%
    23:00 +5°C° 0 mm 3 mps 752 mmHg 81%

    23 October, Tuesday

    Time Temperature Precipitation Wind Pressure Humidity
    00:00 +4°C° 0 mm 3 mps 752 mmHg 82%
    01:00 +5°C° 0 mm 2 mps 752 mmHg 84%
    02:00 +5°C° 0 mm 2 mps 752 mmHg 85%
    03:00 +4°C° 0 mm 3 mps 751 mmHg 86%
    04:00 +4°C° 0 mm 3 mps 751 mmHg 88%
    05:00 +3°C° 0 mm 3 mps 750 mmHg 88%
    06:00 +3°C° 0 mm 3 mps 750 mmHg 88%
    07:00 +3°C° 0 mm 4 mps 750 mmHg 88%
    08:00 +5°C° 0 mm 4 mps 749 mmHg 83%
    09:00 +6°C° 0 mm 5 mps 749 mmHg 78%
    10:00 +7°C° 0 mm 6 mps 748 mmHg 74%
    11:00 +6°C° 0.5 mm 7 mps 747 mmHg 75%
    12:00 +6°C° 0.5 mm 7 mps 747 mmHg 77%
    13:00 +6°C° 0.5 mm 7 mps 746 mmHg 79%
    14:00 +6°C° 0.3 mm 7 mps 746 mmHg 79%
    15:00 +6°C° 0.3 mm 7 mps 745 mmHg 79%
    16:00 +7°C° 0.3 mm 6 mps 745 mmHg 80%
    17:00 +7°C° 0.1 mm 6 mps 744 mmHg 78%
    18:00 +6°C° 0.1 mm 5 mps 744 mmHg 77%
    19:00 +6°C° 0.1 mm 4 mps 744 mmHg 75%
    20:00 +6°C° 0 mm 4 mps 744 mmHg 77%
    21:00 +5°C° 0 mm 4 mps 744 mmHg 78%
    22:00 +5°C° 0 mm 3 mps 743 mmHg 80%
    23:00 +6°C° 0.5 mm 4 mps 742 mmHg 83%

    24 October, Wednesday

    Time Temperature Precipitation Wind Pressure Humidity
    00:00 +7°C° 0.5 mm 5 mps 741 mmHg 86%
    01:00 +7°C° 0.5 mm 6 mps 740 mmHg 89%
    02:00 +8°C° 0.9 mm 7 mps 739 mmHg 89%
    03:00 +9°C° 0.9 mm 8 mps 737 mmHg 88%
    04:00 +10°C° 0.9 mm 8 mps 736 mmHg 88%
    05:00 +10°C° 0.2 mm 9 mps 735 mmHg 86%
    06:00 +11°C° 0.2 mm 9 mps 735 mmHg 84%
    07:00 +11°C° 0.2 mm 9 mps 734 mmHg 82%
    08:00 +11°C° 0.3 mm 9 mps 734 mmHg 78%
    09:00 +11°C° 0.3 mm 10 mps 734 mmHg 73%
    10:00 +11°C° 0.3 mm 10 mps 734 mmHg 69%
    11:00 +11°C° 0.1 mm 11 mps 734 mmHg 62%
    12:00 +11°C° 0.1 mm 11 mps 735 mmHg 55%
    13:00 +11°C° 0.1 mm 11 mps 735 mmHg 49%
    14:00 +9°C° 0 mm 11 mps 736 mmHg 48%
    15:00 +9°C° 0 mm 10 mps 737 mmHg 48%
    16:00 +8°C° 0 mm 9 mps 737 mmHg 48%
    17:00 +7°C° 0 mm 9 mps 738 mmHg 51%
    18:00 +6°C° 0 mm 8 mps 740 mmHg 53%
    19:00 +6°C° 0 mm 8 mps 741 mmHg 56%
    20:00 +5°C° 0 mm 7 mps 742 mmHg 57%
    21:00 +5°C° 0 mm 6 mps 743 mmHg 57%
    22:00 +5°C° 0 mm 6 mps 744 mmHg 58%
    23:00 +4°C° 0 mm 6 mps 744 mmHg 59%
    Show more